[[{"header":{"parameterUnit":"m.s-1","parameterCategory":1,"la1":30.2991,"la2":30.254,"lo1":-89.0895,"lo2":-89.0444,"dy":0.0017,"dx":0.0017,"nx":28,"ny":28,"refTime":"2023-09-05T21:00:00:Z","depth":0,"parameterNumber":2,"parameterNumberName":"U-component_of_WINDS"},"data":[0,0,0,0,0,0,0,0,0,0,0,0,0,0,0,0,0,0,0,0,0,0,0,0,0,0,0,0,0,0,0,0,0,0,0,0,0,0,0,0,0,0,0,0,0,0,0,0,0,0,0,0,0,0,0,0,0,0,-2.1574,-2.1575,0,-2.1623,-2.1623,-2.1624,-2.1618,-2.1618,-2.1617,-2.1616,-2.1667,-2.1669,-2.1671,0,0,0,0,0,0,0,0,0,0,0,0,0,-2.1475,-2.1477,-2.1574,-2.1575,-2.1575,-2.1623,-2.1623,-2.1624,-2.1619,-2.1618,-2.1617,-2.1616,-2.1667,-2.1669,-2.1671,0,0,0,0,0,0,0,0,0,0,0,0,0,-2.1521,-2.1478,-2.1574,-2.1578,-2.1579,-2.1623,-2.1623,-2.1624,-2.1619,-2.1618,-2.1616,-2.1615,-2.1666,-2.1669,-2.1672,-2.1715,0,0,-2.1681,-2.1683,0,0,0,0,0,0,0,0,-2.1518,-2.1524,-2.1577,-2.1578,-2.1579,-2.1613,-2.1607,-2.1655,-2.1619,-2.1604,-2.1616,-2.1615,-2.165,-2.1655,-2.1666,-2.1717,-2.1719,-2.1682,-2.1684,-2.1685,-2.1686,0,0,0,0,0,0,0,-2.1515,-2.1522,-2.1593,-2.1578,-2.1579,-2.1577,-2.1583,-2.1616,-2.1633,-2.1605,-2.1605,-2.161,-2.1651,-2.1663,-2.1668,-2.172,-2.1682,-2.1684,-2.1686,-2.1688,-2.1807,-2.1808,0,0,0,0,0,0,-2.1511,-2.152,-2.1592,-2.1595,-2.1545,-2.158,-2.1586,-2.1603,-2.1633,-2.1636,-2.1611,-2.161,-2.1659,-2.1664,-2.1669,-2.172,-2.1685,-2.1688,-2.169,-2.1805,-2.1807,-2.1808,0,0,0,0,0,0,-2.1509,-2.1517,-2.159,-2.1557,-2.1566,-2.1583,-2.1603,-2.1605,-2.1618,-2.1637,-2.164,-2.1621,-2.1658,-2.1665,-2.1703,-2.1722,-2.1689,-2.1692,-2.1804,-2.1806,-2.1808,-2.1823,0,0,0,0,0,0,-2.1506,-2.1517,-2.1533,-2.1558,-2.1568,-2.1623,-2.1604,-2.1607,-2.1623,-2.1622,-2.1648,-2.1651,-2.1658,-2.1698,-2.1706,-2.1726,-2.1695,-2.1802,-2.1805,-2.1807,-2.1821,-2.1825,-2.1829,0,0,0,0,0,-2.1502,-2.1536,-2.1534,-2.1543,-2.1589,-2.1624,-2.163,-2.1637,-2.1625,-2.1641,-2.1654,-2.165,-2.1719,-2.1702,-2.1711,-2.1732,-2.1801,-2.1804,-2.1807,-2.1819,-2.1824,-2.1829,0,0,0,0,0,0,-2.1514,-2.1539,-2.1537,-2.158,-2.16,-2.1623,-2.1644,-2.1642,-2.1666,-2.1664,-2.1671,-2.1677,-2.1715,-2.1728,-2.1709,-2.1774,-2.1758,-2.1763,-2.1765,-2.177,-2.1774,-2.177,-2.1697,0,0,0,0,0,-2.1522,-2.1548,-2.1568,-2.1604,-2.1614,-2.1627,-2.1643,-2.1646,-2.1667,-2.1675,-2.1691,-2.1711,-2.1737,-2.1754,-2.178,-2.1823,-2.1828,-2.1841,-2.1845,-2.1848,-2.1852,-2.1875,-2.1881,-2.1818,-2.1818,-2.1818,0,0,-2.1537,-2.1554,-2.1571,-2.1607,-2.1622,-2.1649,-2.1634,-2.1663,-2.1683,-2.168,-2.1716,-2.1728,-2.1752,-2.1792,-2.1811,-2.1803,-2.1871,-2.1852,-2.1855,-2.1857,-2.1878,-2.1884,-2.1889,-2.182,-2.1819,-2.1819,0,0,-2.158,-2.1596,-2.1626,-2.1642,-2.1665,-2.1674,-2.1681,-2.1704,-2.1712,-2.1748,-2.1746,-2.177,-2.1815,-2.1831,-2.1845,-2.1892,-2.1889,-2.19,-2.1921,-2.1943,-2.1948,-2.1952,-2.1968,-2.1973,-2.1904,-2.1904,-2.1904,0,-2.1596,-2.1636,-2.1642,-2.1671,-2.1686,-2.1684,-2.1715,-2.173,-2.1761,-2.1771,-2.1763,-2.1818,-2.1834,-2.1877,-2.1889,-2.1901,-2.1909,-2.1897,-2.1946,-2.1951,-2.1955,-2.197,-2.1976,-2.1905,-2.1905,-2.1905,-2.1905,0,-2.1655,-2.1682,-2.1704,-2.1733,-2.1751,-2.1781,-2.1791,-2.1808,-2.181,-2.1819,-2.1856,-2.1875,-2.1903,-2.1913,-2.1916,-2.1957,-2.1952,-2.1945,-2.1929,-2.1962,-2.1976,-2.1982,-2.1907,-2.1906,-2.1906,-2.1906,0,0,-2.1706,-2.1737,-2.1745,-2.1757,-2.1782,-2.1804,-2.1833,-2.186,-2.1874,-2.1895,-2.1919,-2.1957,-2.195,-2.1966,-2.197,-2.199,-2.2024,-2.198,-2.1981,-2.1987,-2.2069,-2.2073,-2.208,-2.2022,-2.2023,-2.2024,-2.2067,0,-2.1749,-2.1801,-2.1806,-2.1852,-2.1877,-2.1874,-2.19,-2.1918,-2.1927,-2.1949,-2.196,-2.1986,-2.1976,-2.1985,-2.2004,-2.2016,-2.204,-2.2013,-2.2044,-2.2045,-2.2037,-2.2087,-2.2092,-2.2131,-2.2072,-2.2073,-2.2074,0,-2.1807,-2.1829,-2.1877,-2.1897,-2.1908,-2.193,-2.1955,-2.1976,-2.1997,-2.2002,-2.2019,-2.202,-2.205,-2.2033,-2.2074,-2.2055,-2.2068,-2.2076,-2.2078,-2.208,-2.2061,-2.209,-2.2144,-2.2149,-2.2083,-2.2082,-2.2082,0,-2.1838,-2.1879,-2.1913,-2.1924,-2.1949,-2.1965,-2.1976,-2.1995,-2.201,-2.2032,-2.2042,-2.2067,-2.208,-2.2099,-2.2107,-2.2095,-2.2147,-2.2131,-2.2152,-2.2151,-2.2162,-2.2161,-2.2218,-2.2172,-2.2172,-2.2172,-2.2172,0,-2.1886,-2.1915,-2.1927,-2.1947,-2.1979,-2.1986,-2.2017,-2.2028,-2.2045,-2.2067,-2.2067,-2.2088,-2.2097,-2.212,-2.2126,-2.2158,-2.2164,-2.2169,-2.217,-2.2168,-2.2168,-2.2177,-2.2174,-2.2174,-2.2173,-2.2173,-2.2173,0,-2.1925,-2.1935,-2.1971,-2.1991,-2.1997,-2.202,-2.2037,-2.2057,-2.2065,-2.2093,-2.21,-2.2114,-2.214,-2.215,-2.2182,-2.2186,-2.2223,-2.2222,-2.2216,-2.2216,-2.2235,-2.2233,-2.2299,-2.2307,-2.2257,-2.2258,-2.2258,0,-2.1955,-2.1977,-2.1999,-2.2014,-2.2025,-2.2049,-2.2064,-2.2071,-2.2087,-2.2111,-2.2127,-2.2153,-2.2174,-2.2216,-2.2229,-2.2253,-2.2253,-2.2274,-2.2256,-2.2253,-2.2252,-2.225,-2.2251,-2.2277,-2.2278,-2.2278,-2.2278,0,-2.2005,-2.2008,-2.203,-2.2053,-2.2071,-2.209,-2.2109,-2.2121,-2.213,-2.2148,-2.2174,-2.219,-2.2222,-2.2248,-2.2273,-2.2284,-2.2283,-2.2284,-2.229,-2.2288,-2.2282,-2.2284,-2.2223,-2.2282,-2.2282,-2.2282,-2.2281,-2.2281,-2.204,-2.2058,-2.2077,-2.2101,-2.2115,-2.2132,-2.2151,-2.2161,-2.2183,-2.2209,-2.2212,-2.224,-2.2259,-2.2291,-2.2304,-2.2326,-2.232,-2.2329,-2.2331,-2.2333,-2.2333,-2.2279,-2.2331,-2.2331,-2.233,-2.233,-2.233,0,-2.2089,-2.21,-2.2122,-2.2147,-2.2166,-2.2162,-2.2182,-2.2198,-2.2222,-2.224,-2.226,-2.2289,-2.2314,-2.2328,-2.2352,-2.2367,-2.2367,-2.2373,-2.2372,-2.2374,-2.2338,-2.233,-2.2373,-2.2373,-2.2373,-2.2373,-2.2373,-2.2373,-2.2116,-2.2148,-2.2153,-2.2191,-2.2202,-2.2229,-2.224,-2.2255,-2.2269,-2.2302,-2.2322,-2.2331,-2.2347,-2.2372,-2.2394,-2.2397,-2.2406,-2.2412,-2.2415,-2.2381,-2.2377,-2.2373,-2.2365,-2.2415,-2.2415,-2.245,-2.245,-2.245]},{"header":{"parameterUnit":"m.s-1","parameterCategory":1,"la1":30.2991,"la2":30.254,"lo1":-89.0895,"lo2":-89.0444,"dy":0.0017,"dx":0.0017,"nx":28,"ny":28,"refTime":"2023-09-05T21:00:00:Z","depth":0,"parameterNumber":3,"parameterNumberName":"V-component_of_WINDS"},"data":[0,0,0,0,0,0,0,0,0,0,0,0,0,0,0,0,0,0,0,0,0,0,0,0,0,0,0,0,0,0,0,0,0,0,0,0,0,0,0,0,0,0,0,0,0,0,0,0,0,0,0,0,0,0,0,0,0,0,-2.7795,-2.7792,0,-2.7469,-2.7465,-2.7462,-2.7213,-2.721,-2.7208,-2.7206,-2.686,-2.6853,-2.6846,0,0,0,0,0,0,0,0,0,0,0,0,0,-2.8191,-2.8185,-2.7796,-2.7791,-2.7787,-2.747,-2.7465,-2.7461,-2.7213,-2.721,-2.7207,-2.7205,-2.6862,-2.6854,-2.6845,0,0,0,0,0,0,0,0,0,0,0,0,0,-2.7957,-2.8183,-2.7796,-2.7626,-2.7607,-2.7471,-2.7465,-2.7459,-2.7214,-2.721,-2.7207,-2.7204,-2.6865,-2.6854,-2.6844,-2.6847,0,0,-2.6811,-2.6807,0,0,0,0,0,0,0,0,-2.7971,-2.7943,-2.7655,-2.7637,-2.7616,-2.7378,-2.7477,-2.7254,-2.7214,-2.7363,-2.7206,-2.7202,-2.7034,-2.7009,-2.6955,-2.683,-2.6816,-2.681,-2.6804,-2.6799,-2.6796,0,0,0,0,0,0,0,-2.7987,-2.7955,-2.7666,-2.7651,-2.7627,-2.7561,-2.7524,-2.7434,-2.7221,-2.7349,-2.7331,-2.7296,-2.7023,-2.6966,-2.6945,-2.681,-2.6811,-2.6801,-2.6795,-2.6791,-2.667,-2.6673,0,0,0,0,0,0,-2.8032,-2.7971,-2.7676,-2.7656,-2.7789,-2.7557,-2.7516,-2.7458,-2.7222,-2.7182,-2.7299,-2.7286,-2.6986,-2.6958,-2.6932,-2.692,-2.68,-2.679,-2.6783,-2.6667,-2.667,-2.6674,0,0,0,0,0,0,-2.8041,-2.8008,-2.7689,-2.7808,-2.7763,-2.7554,-2.7491,-2.7453,-2.7396,-2.7184,-2.7143,-2.7282,-2.6982,-2.6947,-2.687,-2.6905,-2.6785,-2.6775,-2.6663,-2.6668,-2.6672,-2.6897,0,0,0,0,0,0,-2.8054,-2.8013,-2.8015,-2.781,-2.7757,-2.7638,-2.7493,-2.7449,-2.738,-2.7359,-2.7156,-2.7119,-2.6977,-2.6888,-2.686,-2.6888,-2.6767,-2.6659,-2.6665,-2.6671,-2.6885,-2.6909,-2.6929,0,0,0,0,0,-2.8069,-2.8089,-2.8017,-2.7982,-2.7756,-2.764,-2.7609,-2.7449,-2.7384,-2.7383,-2.7246,-2.7126,-2.6905,-2.6882,-2.6848,-2.6874,-2.6656,-2.6663,-2.667,-2.6876,-2.6904,-2.6928,0,0,0,0,0,0,-2.8298,-2.8059,-2.7976,-2.7931,-2.7809,-2.7599,-2.7592,-2.7484,-2.7374,-2.7359,-2.7159,-2.7115,-2.706,-2.6957,-2.6936,-2.6863,-2.6765,-2.6766,-2.6933,-2.6958,-2.6979,-2.7005,-2.6758,0,0,0,0,0,-2.8345,-2.8275,-2.8067,-2.8047,-2.799,-2.7803,-2.7746,-2.7633,-2.7496,-2.7442,-2.7299,-2.7168,-2.7068,-2.7006,-2.6903,-2.6868,-2.682,-2.6869,-2.6891,-2.6909,-2.6913,-2.6886,-2.6906,-2.6697,-2.6697,-2.6697,0,0,-2.8437,-2.8298,-2.8265,-2.809,-2.7981,-2.791,-2.776,-2.769,-2.7635,-2.7429,-2.735,-2.7241,-2.708,-2.7025,-2.6993,-2.6938,-2.6959,-2.6919,-2.6935,-2.6928,-2.6896,-2.6916,-2.6934,-2.6702,-2.6701,-2.67,0,0,-2.8571,-2.846,-2.8431,-2.8327,-2.8166,-2.8041,-2.8035,-2.7841,-2.7762,-2.768,-2.7525,-2.7452,-2.7286,-2.7178,-2.7102,-2.7195,-2.708,-2.7166,-2.7279,-2.7256,-2.7272,-2.7286,-2.732,-2.7334,-2.717,-2.717,-2.7171,0,-2.8707,-2.8598,-2.8429,-2.837,-2.8297,-2.8112,-2.808,-2.7984,-2.7797,-2.7749,-2.769,-2.7478,-2.7356,-2.7274,-2.7297,-2.7241,-2.7225,-2.7189,-2.7285,-2.7296,-2.7306,-2.7336,-2.735,-2.7182,-2.7181,-2.7179,-2.7178,0,-2.8772,-2.8698,-2.8693,-2.8523,-2.8448,-2.8403,-2.8224,-2.8168,-2.8061,-2.7941,-2.7858,-2.7706,-2.757,-2.7541,-2.7434,-2.7442,-2.7413,-2.7323,-2.722,-2.7341,-2.7366,-2.7376,-2.7199,-2.7194,-2.7191,-2.7188,0,0,-2.9042,-2.878,-2.8782,-2.8702,-2.8511,-2.8449,-2.8393,-2.8264,-2.822,-2.8095,-2.8043,-2.7906,-2.7821,-2.7735,-2.7613,-2.7593,-2.7677,-2.7503,-2.7496,-2.7542,-2.7677,-2.7748,-2.7764,-2.7599,-2.76,-2.7602,-2.7691,0,-2.9147,-2.9044,-2.8891,-2.8836,-2.8765,-2.8588,-2.8539,-2.8415,-2.8301,-2.822,-2.809,-2.7998,-2.7893,-2.784,-2.7811,-2.7674,-2.7702,-2.7664,-2.7546,-2.7544,-2.7595,-2.7777,-2.7852,-2.7943,-2.7699,-2.77,-2.7701,0,-2.9257,-2.9149,-2.909,-2.8905,-2.8869,-2.8829,-2.8698,-2.8624,-2.8477,-2.8395,-2.83,-2.8169,-2.8098,-2.8005,-2.7902,-2.7881,-2.7822,-2.7747,-2.7746,-2.773,-2.7632,-2.7767,-2.7968,-2.7984,-2.7715,-2.7714,-2.7713,0,-2.9463,-2.93,-2.9244,-2.9181,-2.8964,-2.894,-2.8848,-2.8698,-2.863,-2.8513,-2.8467,-2.8342,-2.8274,-2.8178,-2.8015,-2.7963,-2.793,-2.7824,-2.7859,-2.7863,-2.7861,-2.7864,-2.8058,-2.7822,-2.7822,-2.7821,-2.7821,0,-2.9597,-2.9568,-2.9334,-2.93,-2.9261,-2.9082,-2.9047,-2.8937,-2.8806,-2.8744,-2.8579,-2.8524,-2.8312,-2.823,-2.8102,-2.8037,-2.8006,-2.7936,-2.7902,-2.7952,-2.7961,-2.7912,-2.7902,-2.7825,-2.7824,-2.7823,-2.7823,0,-2.9821,-2.9664,-2.9591,-2.9393,-2.9342,-2.9322,-2.9149,-2.9107,-2.8983,-2.8907,-2.8878,-2.8683,-2.8578,-2.8407,-2.825,-2.8163,-2.8122,-2.8064,-2.8174,-2.8154,-2.8199,-2.8198,-2.8369,-2.8383,-2.8139,-2.8141,-2.8144,0,-2.9919,-2.9893,-2.9693,-2.9643,-2.9558,-2.9477,-2.9408,-2.923,-2.9164,-2.8996,-2.8973,-2.8857,-2.8755,-2.8595,-2.8436,-2.8315,-2.8254,-2.8322,-2.8235,-2.8286,-2.8256,-2.8261,-2.8257,-2.8344,-2.8347,-2.835,-2.8353,0,-3.0109,-3.0033,-2.9943,-2.9825,-2.9749,-2.9646,-2.9535,-2.9501,-2.9296,-2.923,-2.9124,-2.9045,-2.8887,-2.8773,-2.863,-2.8528,-2.8407,-2.8382,-2.8383,-2.8434,-2.85,-2.8466,-2.8231,-2.8379,-2.8376,-2.8374,-2.8373,-2.8372,-3.0273,-3.0242,-3.0098,-3.0002,-2.9901,-2.9801,-2.9752,-2.9624,-2.9534,-2.9396,-2.9293,-2.9195,-2.9045,-2.8842,-2.8748,-2.8664,-2.8609,-2.8612,-2.8612,-2.8617,-2.8636,-2.8513,-2.8637,-2.8636,-2.8635,-2.8634,-2.8633,0,-3.0456,-3.0355,-3.0269,-3.0121,-3.0046,-2.9941,-2.9811,-2.9754,-2.9671,-2.9545,-2.9449,-2.9326,-2.9214,-2.9047,-2.8922,-2.8887,-2.8828,-2.886,-2.8861,-2.884,-2.8691,-2.8704,-2.891,-2.891,-2.891,-2.891,-2.891,-2.891,-3.0543,-3.0486,-3.0393,-3.0282,-3.0178,-3.0085,-3.002,-2.9926,-2.9825,-2.9697,-2.9605,-2.9499,-2.9355,-2.9218,-2.9109,-2.9062,-2.9024,-2.9075,-2.9011,-2.8876,-2.885,-2.8826,-2.8836,-2.9068,-2.9068,-2.9166,-2.9167,-2.9168]}]]